Regional Weather Roundup
Issued by NWS Burlington, VT

Home | Current Version | Previous Version | Text Only | Print | Product List | Glossary On
Versions: 1 2 3 4 5 6 7 8 9 10 11 12 13 14 15 16 17 18 19 20 21 22 23 24 25 26 27 28 29 30 31 32 33 34 35 36 37 38 39 40 41 42 43 44 45 46 47 48 49 50
000
ASUS41 KBTV 270610
RWRBTV
VERMONT REGIONAL WEATHER ROUNDUP
NATIONAL WEATHER SERVICE BURLINGTON VT
100 AM EST MON FEB 27 2017

NOTE: "FAIR" INDICATES FEW OR NO CLOUDS BELOW 12,000 FEET WITH NO
SIGNIFICANT WEATHER AND/OR OBSTRUCTIONS TO VISIBILITY.

* THESE REPORTS ARE NOT UNDER NWS QUALITY CONTROL AND/OR DO NOT
  REPORT WEATHER SUCH AS PRECIPITATION AND FOG.

VTZ001>019-270700-
_____VERMONT_____


CITY           SKY/WX    TMP DP  RH WIND       PRES   REMARKS
BURLINGTON     CLOUDY    30  18  60 S13G23    30.09S WCI  20
6HR MIN TEMP:  27; 6HR MAX TEMP:  31;

MONTPELIER     CLOUDY    28  15  58 SW10      30.09R WCI  19
6HR MIN TEMP:  23; 6HR MAX TEMP:  28;

MORRISVILLE    CLOUDY    29  15  56 SW12      30.07S WCI  19
6HR MIN TEMP:  19; 6HR MAX TEMP:  29;

ST. JOHNSBURY*   N/A     17  14  88 MISG      30.09R
6HR MIN TEMP:  17; 6HR MAX TEMP:  26;

LYNDONVILLE*   FAIR      14  11  90 CALM      30.08R
6HR MIN TEMP:  14; 6HR MAX TEMP:  23;

MIDDLEBURY*    FAIR      28   9  43 SE7       30.14R WCI  21
6HR MIN TEMP:  26; 6HR MAX TEMP:  29;

RUTLAND*       MOCLDY    28  19  69 CALM      30.15R
6HR MIN TEMP:  27; 6HR MAX TEMP:  30;

SPRINGFIELD    CLEAR     23  15  71 SE3       30.16R
6HR MIN TEMP:  23; 6HR MAX TEMP:  31;

HIGHGATE*      CLOUDY    29  19  66 S9        30.06S WCI  21
6HR MIN TEMP:  22; 6HR MAX TEMP:  29;

NEWPORT*       MOCLDY    19  13  80 S3        30.05S
6HR MIN TEMP:  17; 6HR MAX TEMP:  22;

BENNINGTON     PTCLDY    22  18  85 CALM      30.17R
6HR MIN TEMP:  22; 6HR MAX TEMP:  30;

SUTTON*          N/A     16 N/A N/A MISG        N/A

_____LAKE CHAMPLAIN_____


CITY           SKY/WX    TMP DP  RH WIND       PRES   REMARKS
BURTON ISLAND*   N/A     32  23  69 SW14        N/A  WCI  22
COLCHESTER RF*   N/A     34  25  69 S26         N/A  WCI  21

$$

NYZ007-026>031-035-052-083-087-270700-
_____NORTHERN NEW YORK_____


CITY           SKY/WX    TMP DP  RH WIND       PRES   REMARKS
PLATTSBURGH    PTCLDY    31  16  54 VRB3      30.07R
6HR MIN TEMP:  26; 6HR MAX TEMP:  31;

SARANAC LAKE   MOCLDY    21  18  88 SW8       29.99F WCI  11
6HR MIN TEMP:  18; 6HR MAX TEMP:  22;

MASSENA        CLOUDY    32  21  64 S14G24    30.01F WCI  22
6HR MIN TEMP:  29; 6HR MAX TEMP:  32; 6HR PCP: TRACE;

OGDENSBURG*    FAIR      33  23  68 SW14G22   30.01S WCI  23
6HR MIN TEMP:  30; 6HR MAX TEMP:  33;

POTSDAM*       CLOUDY    32  21  64 SW17G26   30.01F WCI  21
WATERTOWN      CLOUDY    34  20  56 S15G24    30.05S WCI  24
6HR MIN TEMP:  30; 6HR MAX TEMP:  34;

FT DRUM        CLOUDY    33  17  51 SW16G23   30.02F WCI  23
6HR MIN TEMP:  28; 6HR MAX TEMP:  33;

ALBANY         MOCLDY    29  20  69 S8        30.21R WCI  21
6HR MIN TEMP:  24; 6HR MAX TEMP:  30;

GLENS FALLS    MOCLDY    29  19  66 SW10      30.17R WCI  20
6HR MIN TEMP:  27; 6HR MAX TEMP:  32;


$$
NHZ002-005-011-270700-
_____NEW HAMPSHIRE_____


CITY           SKY/WX    TMP DP  RH WIND       PRES   REMARKS
LEBANON        CLEAR     30  17  58 S10       30.13R WCI  21
6HR MIN TEMP:  25; 6HR MAX TEMP:  32;

KEENE          CLEAR     26  20  77 S3        30.20R
6HR MIN TEMP:  25; 6HR MAX TEMP:  32;

MT WASHINGTON  PTCLDY     3   0  85 W54         N/A  WCI -27
6HR MIN TEMP:   0; 6HR MAX TEMP:   4;

PLYMOUTH       FAIR      21  15  79 CALM      30.13R
6HR MIN TEMP:  21; 6HR MAX TEMP:  30;

WHITEFIELD     CLEAR     15  10  80 CALM      30.07R
6HR MIN TEMP:  14; 6HR MAX TEMP:  25;


$$

_____REGIONAL QUEBEC LOCATIONS_____


CITY           SKY/WX    TMP DP  RH WIND       PRES   REMARKS
MONTREAL       FLURRIES  30  23  74 SW20G26   30.00S WCI  18
QUEBEC CITY    LGT SNOW  19  14  79 W3        29.96S
SHERBROOKE     MOCLDY     9   5  85 CALM      30.02S

_____REGIONAL ONTARIO LOCATIONS_____


CITY           SKY/WX    TMP DP  RH WIND       PRES   REMARKS
OTTAWA         MOCLDY    30  23  74 SW21G30   29.95S WCI  17

______KEY______
VSB  - VISIBILITY IN MILES
WCI  - WIND CHILL INDEX
HX   - HEAT INDEX
$$
NNNN




USA.gov is the U.S. government's official web portal to all federal, state and local government web resources and services.